Location: Gisborne
(38.6530°S, 178.0040°E)
Time: 02:35:51
(UTC+13:00)

ISS - Pass Details

Date: 30 January 2019
Orbit: 403 x 411 km, 51.6° (Epoch: 20 February)

Event Time Altitude Azimuth Distance (km) Brightness Sun altitude
Exits shadow 05:25:45 14° 295° (WNW) 1,271 -2.0 -9.6°
Maximum altitude 05:28:30 58° 216° (SW) 488 -3.5 -9.1°
Drops below altitude 10° 05:31:49 10° 135° (SE) 1,496 0.5 -8.6°
Sets 05:33:57 0° 131° (SE) 2,362 2.2 -8.2°
